Osceola Municipal, IA

9:33 PM CDT on May 27, 2018 (GMT -0500)
Osceola Municipal

Weather History for KI75 - April, 2014

Change the Weather History Date:

Sunday, April 27, 2014

  Actual Average (KCNC) Record (KCNC)
Temperature  
Mean Temperature 59 °F -  
Max Temperature 68 °F 70 °F 89 °F (1956)
Min Temperature 50 °F 45 °F 26 °F (1950)
Degree Days  
Heating Degree Days 6    
Growing Degree Days 9 (Base 50)    
Moisture  
Dew Point 51 °F    
Average Humidity 77    
Maximum Humidity 94    
Minimum Humidity 54    
Precipitation  
Precipitation 0.82 in - - ()
Sea Level Pressure  
Sea Level Pressure 29.53 in    
Wind  
Wind Speed 15 mph (East)    
Max Wind Speed 22 mph    
Max Gust Speed 36 mph    
Visibility 9 miles    
Events Rain    
Averages and records for this station are not official NWS values.
T = Trace of Precipitation, MM = Missing Value Source: NWS Daily Summary

Daily Weather History Graph

Daily Weather History Graph

Search for Another Location

Airport or City:

Astronomy

Apr. 27, 2014 Rise Set
Actual Time 6:18 AM CDT 8:07 PM CDT
Civil Twilight 5:48 AM CDT 8:37 PM CDT
Nautical Twilight 5:12 AM CDT 9:13 PM CDT
Astronomical Twilight 4:34 AM CDT 9:51 PM CDT
Moon 5:19 AM CDT (4/27) 6:41 PM CDT (4/27)
Length of Visible Light 14h 48m
Length of Day
13h 49m
Waning Crescent, 3% of the Moon is Illuminated
Apr 27
Waning Crescent
Apr 29
New
May 6
First Quarter
May 14
Full
May 21
Last Quarter

Hourly Weather History & Observations

Time (CDT) Temp. Dew Point Humidity Pressure Visibility Wind Dir Wind Speed Gust Speed Precip Events Conditions
12:15 AM 64.0 °F 47.3 °F 54% 29.68 in 10.0 mi East 12.7 mph 17.3 mph N/A   Scattered Clouds
12:35 AM 64.4 °F 47.3 °F 54% 29.68 in 10.0 mi East 13.8 mph - N/A   Mostly Cloudy
1:15 AM 60.4 °F 47.7 °F 63% 29.68 in 10.0 mi East 20.7 mph 26.5 mph N/A   Overcast
1:35 AM 58.1 °F 46.9 °F 66% 29.67 in 10.0 mi East 17.3 mph 21.9 mph N/A   Overcast
1:55 AM 57.2 °F 45.7 °F 65% 29.67 in 10.0 mi East 18.4 mph 24.2 mph N/A   Overcast
2:15 AM 56.3 °F 44.6 °F 65% 29.66 in 10.0 mi East 16.1 mph - N/A   Overcast
2:35 AM 55.0 °F 44.2 °F 67% 29.66 in 10.0 mi East 16.1 mph 23.0 mph N/A   Overcast
2:55 AM 53.6 °F 43.0 °F 67% 29.66 in 10.0 mi East 17.3 mph 24.2 mph N/A   Overcast
3:15 AM 52.5 °F 42.1 °F 68% 29.65 in 10.0 mi East 21.9 mph 26.5 mph N/A   Overcast
3:35 AM 51.8 °F 41.7 °F 68% 29.65 in 10.0 mi East 13.8 mph 20.7 mph N/A   Overcast
3:55 AM 51.4 °F 41.9 °F 70% 29.63 in 10.0 mi East 13.8 mph 18.4 mph N/A   Overcast
4:15 AM 51.4 °F 41.9 °F 70% 29.63 in 10.0 mi East 16.1 mph 20.7 mph N/A   Overcast
4:35 AM 51.1 °F 41.7 °F 70% 29.63 in 10.0 mi East 15.0 mph 21.9 mph N/A   Overcast
4:55 AM 50.9 °F 41.5 °F 70% 29.63 in 10.0 mi East 15.0 mph - N/A   Overcast
5:15 AM 50.9 °F 41.4 °F 70% 29.62 in 10.0 mi East 16.1 mph 19.6 mph N/A   Overcast
5:35 AM 50.9 °F 41.2 °F 69% 29.62 in 10.0 mi East 13.8 mph 19.6 mph N/A   Overcast
5:55 AM 51.1 °F 41.7 °F 70% 29.61 in 10.0 mi East 13.8 mph 19.6 mph N/A   Overcast
6:15 AM 51.8 °F 41.9 °F 69% 29.61 in 10.0 mi East 12.7 mph 19.6 mph N/A   Overcast
6:35 AM 52.7 °F 43.0 °F 70% 29.61 in 10.0 mi East 13.8 mph 18.4 mph N/A   Overcast
6:55 AM 54.0 °F 44.6 °F 71% 29.59 in 10.0 mi East 16.1 mph 21.9 mph N/A   Overcast
7:15 AM 54.7 °F 45.0 °F 70% 29.60 in 10.0 mi ESE 12.7 mph - N/A   Mostly Cloudy
7:35 AM 54.0 °F 44.8 °F 71% 29.59 in 10.0 mi East 16.1 mph 20.7 mph N/A   Mostly Cloudy
7:55 AM 53.6 °F 45.3 °F 74% 29.57 in 10.0 mi East 11.5 mph - N/A   Mostly Cloudy
8:15 AM 54.7 °F 45.9 °F 72% 29.55 in 10.0 mi East 15.0 mph 19.6 mph N/A   Scattered Clouds
8:35 AM 56.1 °F 46.4 °F 70% 29.54 in 10.0 mi ESE 17.3 mph - N/A   Clear
8:55 AM 57.6 °F 47.3 °F 69% 29.53 in 10.0 mi ESE 17.3 mph 21.9 mph N/A   Clear
9:15 AM 59.0 °F 48.2 °F 67% 29.54 in 10.0 mi ESE 15.0 mph 24.2 mph N/A   Clear
9:35 AM 60.6 °F 49.6 °F 67% 29.53 in 10.0 mi East 16.1 mph 19.6 mph N/A   Mostly Cloudy
9:55 AM 62.1 °F 50.5 °F 66% 29.54 in 10.0 mi ESE 12.7 mph 19.6 mph N/A   Overcast
10:15 AM 63.7 °F 51.8 °F 65% 29.54 in 10.0 mi ESE 16.1 mph - N/A   Overcast
10:35 AM 65.7 °F 53.1 °F 64% 29.54 in 10.0 mi East 15.0 mph 19.6 mph N/A   Overcast
10:55 AM 65.3 °F 53.1 °F 65% 29.54 in 10.0 mi East 11.5 mph - N/A   Overcast
11:15 AM 66.4 °F 53.6 °F 63% 29.53 in 10.0 mi East 15.0 mph 19.6 mph N/A   Overcast
11:35 AM 66.4 °F 54.0 °F 64% 29.52 in 10.0 mi East 12.7 mph 19.6 mph N/A   Overcast
11:55 AM 68.2 °F 54.5 °F 62% 29.51 in 10.0 mi East 17.3 mph 24.2 mph N/A   Mostly Cloudy
12:35 PM 68.0 °F 55.4 °F 64% 29.50 in 10.0 mi East 16.1 mph 19.6 mph N/A   Overcast
12:55 PM 67.5 °F 55.4 °F 65% 29.46 in 10.0 mi East 18.4 mph 23.0 mph N/A   Overcast
1:15 PM 68.0 °F 55.8 °F 65% 29.43 in 10.0 mi East 18.4 mph 25.3 mph N/A   Overcast
1:35 PM 68.0 °F 57.0 °F 68% 29.41 in 10.0 mi East 16.1 mph 21.9 mph N/A Rain Light Rain
1:55 PM 60.3 °F 57.2 °F 90% 29.47 in 1.0 mi SW 11.5 mph 35.7 mph 0.25 in Rain Heavy Rain
2:15 PM 59.4 °F 57.4 °F 93% 29.48 in 3.0 mi SSW 13.8 mph 24.2 mph 0.16 in Rain Heavy Rain
2:35 PM 59.0 °F 57.2 °F 94% 29.49 in 10.0 mi SW 13.8 mph - 0.20 in Rain Light Rain
2:55 PM 59.2 °F 57.2 °F 93% 29.54 in 7.0 mi SW 10.4 mph - 0.25 in Rain Rain
3:15 PM 59.4 °F 57.2 °F 93% 29.48 in 7.0 mi NW 5.8 mph - 0.05 in Rain Rain
3:35 PM 59.4 °F 57.2 °F 93% 29.40 in 7.0 mi NNE 12.7 mph 16.1 mph 0.09 in Rain Light Rain
3:55 PM 59.4 °F 57.6 °F 94% 29.38 in 10.0 mi NE 11.5 mph - 0.09 in   Overcast
4:15 PM 59.9 °F 57.7 °F 93% 29.40 in 10.0 mi ENE 8.1 mph - N/A   Mostly Cloudy
4:35 PM 59.5 °F 57.7 °F 94% 29.42 in 10.0 mi East 9.2 mph - N/A   Scattered Clouds
4:55 PM 59.4 °F 57.6 °F 94% 29.43 in 10.0 mi East 10.4 mph - N/A   Scattered Clouds
5:15 PM 59.4 °F 57.4 °F 93% 29.44 in 10.0 mi East 9.2 mph - N/A   Clear
5:35 PM 59.9 °F 57.4 °F 91% 29.44 in 10.0 mi East 12.7 mph - N/A   Scattered Clouds
5:55 PM 60.4 °F 57.6 °F 90% 29.44 in 10.0 mi ESE 12.7 mph 18.4 mph N/A   Overcast
6:15 PM 60.8 °F 57.4 °F 88% 29.44 in 10.0 mi ESE 15.0 mph 19.6 mph N/A   Overcast
6:35 PM 60.8 °F 57.0 °F 87% 29.45 in 10.0 mi ESE 13.8 mph 19.6 mph N/A   Overcast
6:55 PM 59.9 °F 56.3 °F 88% 29.46 in 10.0 mi East 18.4 mph 23.0 mph N/A   Overcast
7:15 PM 59.9 °F 56.3 °F 88% 29.45 in 10.0 mi East 15.0 mph 23.0 mph N/A   Overcast
7:35 PM 59.5 °F 56.3 °F 89% 29.47 in 10.0 mi East 19.6 mph 24.2 mph N/A   Overcast
7:55 PM 59.9 °F 56.7 °F 89% 29.47 in 10.0 mi East 18.4 mph 24.2 mph N/A   Overcast
8:15 PM 59.4 °F 56.5 °F 90% 29.47 in 10.0 mi East 12.7 mph - N/A   Overcast
8:55 PM 59.9 °F 57.2 °F 91% 29.47 in 10.0 mi East 18.4 mph - N/A   Overcast
9:15 PM 59.9 °F 57.2 °F 91% 29.47 in 10.0 mi East 19.6 mph 25.3 mph N/A   Overcast
9:35 PM 60.1 °F 57.4 °F 91% 29.47 in 10.0 mi East 19.6 mph 24.2 mph N/A   Overcast
9:55 PM 60.1 °F 57.6 °F 91% 29.49 in 7.0 mi SE 13.8 mph - N/A Rain Light Rain
10:15 PM 59.9 °F 57.6 °F 92% 29.48 in 5.0 mi ESE 12.7 mph - 0.08 in Rain Heavy Rain
10:35 PM 59.0 °F 55.8 °F 89% 29.47 in 10.0 mi East 10.4 mph - 0.11 in Rain Light Rain
10:55 PM 58.1 °F 55.6 °F 91% 29.44 in 10.0 mi East 13.8 mph - 0.13 in Rain Light Rain
11:15 PM 57.2 °F 54.9 °F 92% 29.44 in 10.0 mi East 11.5 mph - 0.01 in Rain Light Rain
11:35 PM 56.8 °F 54.9 °F 93% 29.46 in 5.0 mi East 10.4 mph - 0.09 in Rain Heavy Rain
11:55 PM 56.7 °F 55.0 °F 94% 29.46 in 7.0 mi East 9.2 mph - 0.10 in Rain Rain